Time,TemperatureF,DewpointF,PressureIn,WindDirection,WindDirectionDegrees,WindSpeedMPH,WindSpeedGustMPH,Humidity,HourlyPrecipIn,Conditions,Clouds,dailyrainin,SoftwareType,DateUTC
2013-03-05 00:00:00,40.6,11.6,29.56,SE,134,0.0,8.0,30,0.00,,,0.00,Weather View 32 v70,2013-03-05 08:00:00,
2013-03-05 00:05:00,40.3,11.3,29.56,SW,227,3.0,8.0,30,0.00,,,0.00,Weather View 32 v70,2013-03-05 08:05:00,
2013-03-05 00:10:00,40.3,11.3,29.56,SE,136,0.0,8.0,30,0.00,,,0.00,Weather View 32 v70,2013-03-05 08:10:00,
2013-03-05 00:15:00,40.1,11.1,29.56,SE,136,0.0,8.0,30,0.00,,,0.00,Weather View 32 v70,2013-03-05 08:15:00,
2013-03-05 00:25:00,39.9,11.0,29.56,WNW,284,0.0,6.0,30,0.00,,,0.00,Weather View 32 v70,2013-03-05 08:25:00,
2013-03-05 00:30:00,39.7,10.8,29.56,NNW,337,0.0,6.0,30,0.00,,,0.00,Weather View 32 v70,2013-03-05 08:30:00,
2013-03-05 00:35:00,39.7,10.8,29.56,WSW,253,0.0,6.0,30,0.00,,,0.00,Weather View 32 v70,2013-03-05 08:35:00,
2013-03-05 00:40:00,39.7,10.8,29.56,North,353,0.0,4.0,30,0.00,,,0.00,Weather View 32 v70,2013-03-05 08:40:00,
2013-03-05 00:50:00,39.6,11.4,29.56,SW,234,0.0,4.0,31,0.00,,,0.00,Weather View 32 v70,2013-03-05 08:50:00,
2013-03-05 00:55:00,39.7,10.8,29.56,WNW,285,0.0,5.0,30,0.00,,,0.00,Weather View 32 v70,2013-03-05 08:55:00,
2013-03-05 01:05:00,39.9,11.0,29.56,SSE,155,0.0,5.0,30,0.00,,,0.00,Weather View 32 v70,2013-03-05 09:05:00,
2013-03-05 01:10:00,39.7,10.8,29.56,SW,224,0.0,5.0,30,0.00,,,0.00,Weather View 32 v70,2013-03-05 09:10:00,
2013-03-05 01:15:00,40.1,11.1,29.56,ESE,118,3.0,5.0,30,0.00,,,0.00,Weather View 32 v70,2013-03-05 09:15:00,
2013-03-05 01:20:00,40.5,10.7,29.56,West,277,0.0,5.0,29,0.00,,,0.00,Weather View 32 v70,2013-03-05 09:20:00,
2013-03-05 01:30:00,40.8,11.0,29.56,North,4,0.0,5.0,29,0.00,,,0.00,Weather View 32 v70,2013-03-05 09:30:00,
2013-03-05 01:35:00,40.6,11.6,29.56,North,4,0.0,5.0,30,0.00,,,0.00,Weather View 32 v70,2013-03-05 09:35:00,
2013-03-05 01:40:00,40.5,11.4,29.56,North,4,0.0,5.0,30,0.00,,,0.00,Weather View 32 v70,2013-03-05 09:40:00,
2013-03-05 01:50:00,40.3,11.3,29.56,North,1,0.0,5.0,30,0.00,,,0.00,Weather View 32 v70,2013-03-05 09:50:00,
2013-03-05 01:55:00,39.9,11.0,29.56,North,4,0.0,5.0,30,0.00,,,0.00,Weather View 32 v70,2013-03-05 09:55:00,
2013-03-05 02:00:00,39.7,10.8,29.56,North,5,0.0,5.0,30,0.00,,,0.00,Weather View 32 v70,2013-03-05 10:00:00,
2013-03-05 02:10:00,39.4,11.9,29.56,North,5,0.0,5.0,32,0.00,,,0.00,Weather View 32 v70,2013-03-05 10:10:00,
2013-03-05 02:15:00,39.2,11.8,29.56,ESE,108,0.0,4.0,32,0.00,,,0.00,Weather View 32 v70,2013-03-05 10:15:00,
2013-03-05 02:20:00,39.0,11.6,29.56,ESE,108,0.0,4.0,32,0.00,,,0.00,Weather View 32 v70,2013-03-05 10:20:00,
2013-03-05 02:25:00,39.2,11.8,29.56,ESE,108,0.0,4.0,32,0.00,,,0.00,Weather View 32 v70,2013-03-05 10:25:00,
2013-03-05 02:30:00,39.2,11.1,29.56,ESE,108,0.0,4.0,31,0.00,,,0.00,Weather View 32 v70,2013-03-05 10:30:00,
2013-03-05 02:40:00,39.4,10.5,29.53,North,353,0.0,5.0,30,0.00,,,0.00,Weather View 32 v70,2013-03-05 10:40:00,
2013-03-05 02:45:00,39.6,10.6,29.53,WNW,291,2.0,5.0,30,0.00,,,0.00,Weather View 32 v70,2013-03-05 10:45:00,
2013-03-05 02:50:00,39.7,10.8,29.53,WNW,291,0.0,5.0,30,0.00,,,0.00,Weather View 32 v70,2013-03-05 10:50:00,
2013-03-05 02:55:00,39.7,10.8,29.53,WNW,291,0.0,5.0,30,0.00,,,0.00,Weather View 32 v70,2013-03-05 10:55:00,
2013-03-05 03:00:00,39.6,10.6,29.53,WNW,291,0.0,5.0,30,0.00,,,0.00,Weather View 32 v70,2013-03-05 11:00:00,
2013-03-05 03:10:00,39.6,10.6,29.53,North,2,0.0,5.0,30,0.00,,,0.00,Weather View 32 v70,2013-03-05 11:10:00,
2013-03-05 03:15:00,39.7,11.5,29.53,NNW,342,0.0,5.0,31,0.00,,,0.00,Weather View 32 v70,2013-03-05 11:15:00,
2013-03-05 03:20:00,39.7,10.8,29.53,WNW,286,2.0,5.0,30,0.00,,,0.00,Weather View 32 v70,2013-03-05 11:20:00,
2013-03-05 03:25:00,39.9,11.7,29.53,WNW,288,0.0,6.0,31,0.00,,,0.00,Weather View 32 v70,2013-03-05 11:25:00,
2013-03-05 03:35:00,40.5,11.4,29.53,NNE,24,0.0,6.0,30,0.00,,,0.00,Weather View 32 v70,2013-03-05 11:35:00,
2013-03-05 03:40:00,41.0,11.1,29.50,NNW,333,4.0,6.0,29,0.00,,,0.00,Weather View 32 v70,2013-03-05 11:40:00,
2013-03-05 03:45:00,41.2,11.3,29.50,SE,142,0.0,6.0,29,0.00,,,0.00,Weather View 32 v70,2013-03-05 11:45:00,
2013-03-05 03:50:00,41.5,11.6,29.50,West,280,0.0,6.0,29,0.00,,,0.00,Weather View 32 v70,2013-03-05 11:50:00,
2013-03-05 04:00:00,41.4,11.4,29.50,SW,214,0.0,6.0,29,0.00,,,0.00,Weather View 32 v70,2013-03-05 12:00:00,
2013-03-05 04:05:00,41.7,11.8,29.50,South,169,0.0,6.0,29,0.00,,,0.00,Weather View 32 v70,2013-03-05 12:05:00,
2013-03-05 04:10:00,42.1,12.1,29.50,North,357,2.0,6.0,29,0.00,,,0.00,Weather View 32 v70,2013-03-05 12:10:00,
2013-03-05 04:20:00,42.1,12.1,29.50,SW,217,0.0,6.0,29,0.00,,,0.00,Weather View 32 v70,2013-03-05 12:20:00,
2013-03-05 04:25:00,42.1,12.1,29.50,WSW,253,0.0,5.0,29,0.00,,,0.00,Weather View 32 v70,2013-03-05 12:25:00,
2013-03-05 04:30:00,41.9,11.9,29.50,WSW,241,0.0,5.0,29,0.00,,,0.00,Weather View 32 v70,2013-03-05 12:30:00,
2013-03-05 04:35:00,42.4,11.6,29.50,SW,221,0.0,4.0,28,0.00,,,0.00,Weather View 32 v70,2013-03-05 12:35:00,
2013-03-05 04:40:00,42.4,12.4,29.50,SW,222,0.0,4.0,29,0.00,,,0.00,Weather View 32 v70,2013-03-05 12:40:00,
2013-03-05 04:50:00,42.6,12.5,29.50,WNW,294,0.0,4.0,29,0.00,,,0.00,Weather View 32 v70,2013-03-05 12:50:00,
2013-03-05 04:55:00,42.6,12.5,29.50,WSW,246,4.0,6.0,29,0.00,,,0.00,Weather View 32 v70,2013-03-05 12:55:00,
2013-03-05 05:00:00,42.4,12.4,29.50,North,0,2.0,6.0,29,0.00,,,0.00,Weather View 32 v70,2013-03-05 13:00:00,
2013-03-05 05:10:00,42.3,11.4,29.50,North,357,0.0,6.0,28,0.00,,,0.00,Weather View 32 v70,2013-03-05 13:10:00,
2013-03-05 05:15:00,42.4,12.4,29.50,North,357,0.0,6.0,29,0.00,,,0.00,Weather View 32 v70,2013-03-05 13:15:00,
2013-03-05 05:20:00,42.8,11.9,29.50,West,279,2.0,6.0,28,0.00,,,0.00,Weather View 32 v70,2013-03-05 13:20:00,
2013-03-05 05:25:00,42.6,12.5,29.50,West,279,3.0,6.0,29,0.00,,,0.00,Weather View 32 v70,2013-03-05 13:25:00,
2013-03-05 05:30:00,42.3,12.2,29.50,West,279,0.0,6.0,29,0.00,,,0.00,Weather View 32 v70,2013-03-05 13:30:00,
2013-03-05 05:40:00,41.5,11.6,29.47,West,279,0.0,6.0,29,0.00,,,0.00,Weather View 32 v70,2013-03-05 13:40:00,
2013-03-05 05:45:00,41.5,11.6,29.47,SE,126,0.0,6.0,29,0.00,,,0.00,Weather View 32 v70,2013-03-05 13:45:00,
2013-03-05 05:50:00,41.7,11.8,29.47,ESE,111,0.0,6.0,29,0.00,,,0.00,Weather View 32 v70,2013-03-05 13:50:00,
2013-03-05 05:55:00,41.7,11.8,29.47,SW,235,3.0,6.0,29,0.00,,,0.00,Weather View 32 v70,2013-03-05 13:55:00,
2013-03-05 06:02:00,41.7,11.8,29.47,South,183,0.0,5.0,29,0.00,,,0.00,Weather View 32 v70,2013-03-05 14:02:00,
2013-03-05 06:10:00,41.9,11.9,29.47,East,101,6.0,6.0,29,0.00,,,0.00,Weather View 32 v70,2013-03-05 14:10:00,
2013-03-05 06:15:00,42.1,12.1,29.47,East,89,0.0,6.0,29,0.00,,,0.00,Weather View 32 v70,2013-03-05 14:15:00,
2013-03-05 06:25:00,42.1,12.1,29.47,SE,127,0.0,6.0,29,0.00,,,0.00,Weather View 32 v70,2013-03-05 14:25:00,
2013-03-05 06:30:00,42.1,12.1,29.47,East,90,4.0,6.0,29,0.00,,,0.00,Weather View 32 v70,2013-03-05 14:30:00,
2013-03-05 06:35:00,42.1,12.1,29.47,SSE,159,3.0,6.0,29,0.00,,,0.00,Weather View 32 v70,2013-03-05 14:35:00,
2013-03-05 06:40:00,42.3,12.2,29.47,ESE,111,0.0,6.0,29,0.00,,,0.00,Weather View 32 v70,2013-03-05 14:40:00,
2013-03-05 06:45:00,42.3,12.2,29.47,SSE,164,4.0,6.0,29,0.00,,,0.00,Weather View 32 v70,2013-03-05 14:45:00,
2013-03-05 06:55:00,42.3,12.2,29.47,ESE,106,4.0,6.0,29,0.00,,,0.00,Weather View 32 v70,2013-03-05 14:55:00,
2013-03-05 07:00:00,42.3,12.2,29.47,ESE,104,0.0,6.0,29,0.00,,,0.00,Weather View 32 v70,2013-03-05 15:00:00,
2013-03-05 07:05:00,42.3,12.2,29.47,SSE,160,0.0,7.0,29,0.00,,,0.00,Weather View 32 v70,2013-03-05 15:05:00,
2013-03-05 07:10:00,42.3,13.7,29.47,South,191,4.0,7.0,31,0.00,,,0.00,Weather View 32 v70,2013-03-05 15:10:00,
2013-03-05 07:20:00,41.7,17.3,29.47,South,180,3.0,7.0,37,0.00,,,0.00,Weather View 32 v70,2013-03-05 15:20:00,
2013-03-05 07:25:00,41.4,17.6,29.47,South,180,3.0,7.0,38,0.00,,,0.00,Weather View 32 v70,2013-03-05 15:25:00,
2013-03-05 07:30:00,41.4,17.6,29.47,SSW,193,0.0,7.0,38,0.00,,,0.00,Weather View 32 v70,2013-03-05 15:30:00,
2013-03-05 07:40:00,41.5,18.4,29.47,SSW,193,0.0,7.0,39,0.00,,,0.00,Weather View 32 v70,2013-03-05 15:40:00,
2013-03-05 07:45:00,41.5,19.0,29.47,SSW,193,0.0,7.0,40,0.00,,,0.00,Weather View 32 v70,2013-03-05 15:45:00,
2013-03-05 07:50:00,41.5,19.0,29.47,SSW,193,3.0,7.0,40,0.00,,,0.00,Weather View 32 v70,2013-03-05 15:50:00,
2013-03-05 07:55:00,41.7,19.1,29.47,SSW,193,0.0,7.0,40,0.00,,,0.00,Weather View 32 v70,2013-03-05 15:55:00,
2013-03-05 08:03:00,41.7,19.1,29.47,SSW,193,0.0,7.0,40,0.00,,,0.00,Weather View 32 v70,2013-03-05 16:03:00,
2013-03-05 08:10:00,41.7,19.1,29.47,West,262,0.0,5.0,40,0.00,,,0.00,Weather View 32 v70,2013-03-05 16:10:00,
2013-03-05 08:15:00,41.9,19.3,29.47,WSW,254,2.0,4.0,40,0.00,,,0.00,Weather View 32 v70,2013-03-05 16:15:00,
2013-03-05 08:25:00,42.1,19.5,29.50,NW,307,0.0,4.0,40,0.00,,,0.00,Weather View 32 v70,2013-03-05 16:25:00,
2013-03-05 08:30:00,42.3,19.0,29.50,NW,305,0.0,4.0,39,0.00,,,0.00,Weather View 32 v70,2013-03-05 16:30:00,
2013-03-05 08:35:00,42.3,19.0,29.50,WNW,297,3.0,4.0,39,0.00,,,0.00,Weather View 32 v70,2013-03-05 16:35:00,
2013-03-05 08:45:00,42.6,16.8,29.50,West,281,3.0,4.0,35,0.00,,,0.00,Weather View 32 v70,2013-03-05 16:45:00,
2013-03-05 08:50:00,42.8,16.3,29.50,West,280,0.0,4.0,34,0.00,,,0.00,Weather View 32 v70,2013-03-05 16:50:00,
2013-03-05 09:00:00,43.0,16.5,29.50,West,280,0.0,4.0,34,0.00,,,0.00,Weather View 32 v70,2013-03-05 17:00:00,
2013-03-05 09:05:00,43.0,15.8,29.50,West,280,0.0,4.0,33,0.00,,,0.00,Weather View 32 v70,2013-03-05 17:05:00,
2013-03-05 09:15:00,43.3,16.1,29.50,West,280,0.0,6.0,33,0.00,,,0.00,Weather View 32 v70,2013-03-05 17:15:00,
2013-03-05 09:20:00,43.3,16.1,29.50,West,280,0.0,6.0,33,0.00,,,0.00,Weather View 32 v70,2013-03-05 17:20:00,
2013-03-05 09:25:00,43.3,16.1,29.50,West,280,0.0,6.0,33,0.00,,,0.00,Weather View 32 v70,2013-03-05 17:25:00,
2013-03-05 09:30:00,43.3,16.1,29.50,West,280,0.0,6.0,33,0.00,,,0.00,Weather View 32 v70,2013-03-05 17:30:00,
2013-03-05 09:35:00,43.5,16.3,29.50,West,280,0.0,6.0,33,0.00,,,0.00,Weather View 32 v70,2013-03-05 17:35:00,
2013-03-05 09:45:00,43.7,16.4,29.50,West,280,0.0,6.0,33,0.00,,,0.00,Weather View 32 v70,2013-03-05 17:45:00,
2013-03-05 09:50:00,43.7,17.1,29.50,West,280,0.0,6.0,34,0.00,,,0.00,Weather View 32 v70,2013-03-05 17:50:00,
2013-03-05 09:55:00,43.7,17.1,29.50,West,280,0.0,6.0,34,0.00,,,0.00,Weather View 32 v70,2013-03-05 17:55:00,
2013-03-05 10:00:00,43.9,17.3,29.50,West,280,0.0,6.0,34,0.00,,,0.00,Weather View 32 v70,2013-03-05 18:00:00,
2013-03-05 10:10:00,44.1,17.4,29.50,West,280,0.0,6.0,34,0.00,,,0.00,Weather View 32 v70,2013-03-05 18:10:00,
2013-03-05 10:20:00,44.4,17.1,29.50,NNW,334,0.0,4.0,33,0.00,,,0.00,Weather View 32 v70,2013-03-05 18:20:00,
2013-03-05 10:25:00,44.4,17.1,29.50,NNW,334,0.0,4.0,33,0.00,,,0.00,Weather View 32 v70,2013-03-05 18:25:00,
2013-03-05 10:35:00,44.6,16.5,29.50,NNW,335,0.0,5.0,32,0.00,,,0.00,Weather View 32 v70,2013-03-05 18:35:00,
2013-03-05 10:40:00,44.8,17.4,29.50,NNW,335,0.0,5.0,33,0.00,,,0.00,Weather View 32 v70,2013-03-05 18:40:00,
2013-03-05 10:45:00,45.1,17.0,29.50,NNE,23,0.0,5.0,32,0.00,,,0.00,Weather View 32 v70,2013-03-05 18:45:00,
2013-03-05 10:50:00,45.3,17.9,29.50,NNE,23,0.0,5.0,33,0.00,,,0.00,Weather View 32 v70,2013-03-05 18:50:00,
2013-03-05 10:55:00,45.5,16.6,29.47,North,2,0.0,5.0,31,0.00,,,0.00,Weather View 32 v70,2013-03-05 18:55:00,
2013-03-05 11:05:00,45.9,16.9,29.47,ENE,62,4.0,5.0,31,0.00,,,0.00,Weather View 32 v70,2013-03-05 19:05:00,
2013-03-05 11:15:00,46.0,16.3,29.47,NNE,30,0.0,5.0,30,0.00,,,0.00,Weather View 32 v70,2013-03-05 19:15:00,
2013-03-05 11:25:00,46.6,16.0,29.47,NE,36,0.0,5.0,29,0.00,,,0.00,Weather View 32 v70,2013-03-05 19:25:00,
2013-03-05 11:30:00,46.8,16.9,29.47,NE,34,0.0,5.0,30,0.00,,,0.00,Weather View 32 v70,2013-03-05 19:30:00,
2013-03-05 11:35:00,46.9,16.3,29.47,NNW,341,0.0,6.0,29,0.00,,,0.00,Weather View 32 v70,2013-03-05 19:35:00,
2013-03-05 11:40:00,47.1,16.4,29.47,NNE,28,3.0,6.0,29,0.00,,,0.00,Weather View 32 v70,2013-03-05 19:40:00,
2013-03-05 11:45:00,47.5,15.9,29.47,North,353,3.0,6.0,28,0.00,,,0.00,Weather View 32 v70,2013-03-05 19:45:00,
2013-03-05 11:55:00,48.0,16.4,29.47,NNW,346,0.0,6.0,28,0.00,,,0.00,Weather View 32 v70,2013-03-05 19:55:00,
2013-03-05 12:00:00,48.2,16.6,29.47,North,11,3.0,6.0,28,0.00,,,0.00,Weather View 32 v70,2013-03-05 20:00:00,
2013-03-05 12:05:00,48.4,15.9,29.47,North,353,0.0,6.0,27,0.00,,,0.00,Weather View 32 v70,2013-03-05 20:05:00,
2013-03-05 12:15:00,48.4,15.9,29.47,North,353,0.0,6.0,27,0.00,,,0.00,Weather View 32 v70,2013-03-05 20:15:00,
2013-03-05 12:20:00,48.6,16.0,29.47,North,353,0.0,6.0,27,0.00,,,0.00,Weather View 32 v70,2013-03-05 20:20:00,
2013-03-05 12:25:00,48.6,16.0,29.47,WNW,286,4.0,6.0,27,0.00,,,0.00,Weather View 32 v70,2013-03-05 20:25:00,
2013-03-05 12:30:00,48.7,16.2,29.47,WNW,286,3.0,6.0,27,0.00,,,0.00,Weather View 32 v70,2013-03-05 20:30:00,
2013-03-05 12:35:00,48.7,16.2,29.47,WNW,292,5.0,6.0,27,0.00,,,0.00,Weather View 32 v70,2013-03-05 20:35:00,
2013-03-05 12:45:00,48.7,16.2,29.44,WNW,293,3.0,6.0,27,0.00,,,0.00,Weather View 32 v70,2013-03-05 20:45:00,
2013-03-05 12:50:00,48.7,16.2,29.44,West,260,5.0,6.0,27,0.00,,,0.00,Weather View 32 v70,2013-03-05 20:50:00,
2013-03-05 12:55:00,48.7,16.2,29.44,WNW,284,6.0,6.0,27,0.00,,,0.00,Weather View 32 v70,2013-03-05 20:55:00,
2013-03-05 13:00:00,48.9,16.3,29.44,WNW,286,6.0,6.0,27,0.00,,,0.00,Weather View 32 v70,2013-03-05 21:00:00,
2013-03-05 13:05:00,49.1,16.5,29.44,West,265,2.0,6.0,27,0.00,,,0.00,Weather View 32 v70,2013-03-05 21:05:00,
2013-03-05 13:15:00,48.9,18.0,29.44,West,280,4.0,6.0,29,0.00,,,0.00,Weather View 32 v70,2013-03-05 21:15:00,
2013-03-05 13:20:00,48.7,18.6,29.44,NW,305,4.0,6.0,30,0.00,,,0.00,Weather View 32 v70,2013-03-05 21:20:00,
2013-03-05 13:25:00,48.7,18.6,29.44,West,263,9.0,9.0,30,0.00,,,0.00,Weather View 32 v70,2013-03-05 21:25:00,
2013-03-05 13:30:00,48.7,18.6,29.44,West,263,5.0,9.0,30,0.00,,,0.00,Weather View 32 v70,2013-03-05 21:30:00,
2013-03-05 13:35:00,48.7,18.6,29.44,WSW,247,6.0,9.0,30,0.00,,,0.00,Weather View 32 v70,2013-03-05 21:35:00,
2013-03-05 13:45:00,48.7,18.6,29.44,NW,306,6.0,9.0,30,0.00,,,0.00,Weather View 32 v70,2013-03-05 21:45:00,
2013-03-05 13:50:00,48.6,20.0,29.44,West,270,4.0,9.0,32,0.00,,,0.00,Weather View 32 v70,2013-03-05 21:50:00,
2013-03-05 13:55:00,48.7,20.1,29.44,West,267,4.0,9.0,32,0.00,,,0.00,Weather View 32 v70,2013-03-05 21:55:00,
2013-03-05 14:00:00,48.6,20.7,29.44,WSW,245,4.0,9.0,33,0.00,,,0.00,Weather View 32 v70,2013-03-05 22:00:00,
2013-03-05 14:07:00,48.4,20.6,29.44,West,280,5.0,9.0,33,0.00,,,0.00,Weather View 32 v70,2013-03-05 22:07:00,
2013-03-05 14:15:00,48.0,20.2,29.44,West,272,4.0,9.0,33,0.00,,,0.00,Weather View 32 v70,2013-03-05 22:15:00,
2013-03-05 14:20:00,48.0,20.9,29.44,West,270,6.0,9.0,34,0.00,,,0.00,Weather View 32 v70,2013-03-05 22:20:00,
2013-03-05 14:25:00,48.0,20.9,29.44,WNW,290,6.0,9.0,34,0.00,,,0.00,Weather View 32 v70,2013-03-05 22:25:00,
2013-03-05 14:30:00,48.0,20.9,29.44,WNW,290,0.0,9.0,34,0.00,,,0.00,Weather View 32 v70,2013-03-05 22:30:00,
2013-03-05 14:35:00,48.0,20.2,29.44,West,265,5.0,9.0,33,0.00,,,0.00,Weather View 32 v70,2013-03-05 22:35:00,
2013-03-05 14:45:00,47.8,20.1,29.44,West,281,6.0,9.0,33,0.00,,,0.00,Weather View 32 v70,2013-03-05 22:45:00,
2013-03-05 14:55:00,47.5,19.8,29.44,West,279,3.0,9.0,33,0.00,,,0.00,Weather View 32 v70,2013-03-05 22:55:00,
2013-03-05 15:00:00,47.5,20.5,29.44,WNW,300,3.0,9.0,34,0.00,,,0.00,Weather View 32 v70,2013-03-05 23:00:00,
2013-03-05 15:05:00,47.5,20.5,29.44,NW,313,0.0,9.0,34,0.00,,,0.00,Weather View 32 v70,2013-03-05 23:05:00,
2013-03-05 15:15:00,47.5,19.0,29.44,West,265,4.0,8.0,32,0.00,,,0.00,Weather View 32 v70,2013-03-05 23:15:00,
2013-03-05 15:20:00,47.5,19.0,29.44,West,265,3.0,8.0,32,0.00,,,0.00,Weather View 32 v70,2013-03-05 23:20:00,
2013-03-05 15:25:00,47.5,19.0,29.44,West,265,3.0,8.0,32,0.00,,,0.00,Weather View 32 v70,2013-03-05 23:25:00,
2013-03-05 15:35:00,47.5,19.0,29.44,West,265,4.0,8.0,32,0.00,,,0.00,Weather View 32 v70,2013-03-05 23:35:00,
2013-03-05 15:40:00,47.5,19.0,29.44,West,265,4.0,8.0,32,0.00,,,0.00,Weather View 32 v70,2013-03-05 23:40:00,
2013-03-05 15:45:00,47.5,19.0,29.44,West,265,5.0,8.0,32,0.00,,,0.00,Weather View 32 v70,2013-03-05 23:45:00,
2013-03-05 15:50:00,47.5,19.0,29.44,West,272,4.0,6.0,32,0.00,,,0.00,Weather View 32 v70,2013-03-05 23:50:00,
2013-03-05 16:00:00,47.3,18.1,29.44,WNW,292,2.0,5.0,31,0.00,,,0.00,Weather View 32 v70,2013-03-06 00:00:00,
2013-03-05 16:05:00,47.3,18.9,29.44,WNW,288,4.0,5.0,32,0.00,,,0.00,Weather View 32 v70,2013-03-06 00:05:00,
2013-03-05 16:10:00,47.3,18.9,29.44,West,269,3.0,5.0,32,0.00,,,0.00,Weather View 32 v70,2013-03-06 00:10:00,
2013-03-05 16:15:00,47.5,19.8,29.44,West,279,2.0,5.0,33,0.00,,,0.00,Weather View 32 v70,2013-03-06 00:15:00,
2013-03-05 16:25:00,47.5,20.5,29.44,West,278,3.0,6.0,34,0.00,,,0.00,Weather View 32 v70,2013-03-06 00:25:00,
2013-03-05 16:30:00,47.3,20.3,29.44,NW,313,5.0,6.0,34,0.00,,,0.00,Weather View 32 v70,2013-03-06 00:30:00,
2013-03-05 16:35:00,47.3,21.0,29.44,WNW,283,5.0,6.0,35,0.00,,,0.00,Weather View 32 v70,2013-03-06 00:35:00,
2013-03-05 16:40:00,47.3,21.7,29.44,WNW,299,6.0,6.0,36,0.00,,,0.00,Weather View 32 v70,2013-03-06 00:40:00,
2013-03-05 16:45:00,47.1,21.5,29.44,West,267,4.0,6.0,36,0.00,,,0.00,Weather View 32 v70,2013-03-06 00:45:00,
2013-03-05 16:55:00,46.9,22.0,29.44,WNW,287,0.0,6.0,37,0.00,,,0.00,Weather View 32 v70,2013-03-06 00:55:00,
2013-03-05 17:00:00,46.9,22.0,29.44,NW,324,0.0,6.0,37,0.00,,,0.00,Weather View 32 v70,2013-03-06 01:00:00,
2013-03-05 17:05:00,46.8,21.8,29.44,NW,324,0.0,6.0,37,0.00,,,0.00,Weather View 32 v70,2013-03-06 01:05:00,
2013-03-05 17:15:00,46.8,21.8,29.44,NW,324,0.0,6.0,37,0.00,,,0.00,Weather View 32 v70,2013-03-06 01:15:00,
2013-03-05 17:20:00,46.6,21.7,29.44,NW,324,3.0,6.0,37,0.00,,,0.00,Weather View 32 v70,2013-03-06 01:20:00,
2013-03-05 17:25:00,46.6,21.7,29.44,NW,324,0.0,6.0,37,0.00,,,0.00,Weather View 32 v70,2013-03-06 01:25:00,
2013-03-05 17:30:00,46.4,21.5,29.44,NW,324,0.0,6.0,37,0.00,,,0.00,Weather View 32 v70,2013-03-06 01:30:00,
2013-03-05 17:35:00,46.4,21.5,29.44,NW,324,0.0,6.0,37,0.00,,,0.00,Weather View 32 v70,2013-03-06 01:35:00,
2013-03-05 17:45:00,46.4,22.1,29.44,NW,324,0.0,5.0,38,0.00,,,0.00,Weather View 32 v70,2013-03-06 01:45:00,
2013-03-05 17:50:00,46.2,22.0,29.44,NW,324,0.0,4.0,38,0.00,,,0.00,Weather View 32 v70,2013-03-06 01:50:00,
2013-03-05 17:55:00,46.2,22.6,29.44,NW,324,0.0,4.0,39,0.00,,,0.00,Weather View 32 v70,2013-03-06 01:55:00,
2013-03-05 18:00:00,46.0,21.8,29.44,WNW,282,4.0,5.0,38,0.00,,,0.00,Weather View 32 v70,2013-03-06 02:00:00,
2013-03-05 18:09:00,46.0,21.8,29.44,NW,323,3.0,5.0,38,0.00,,,0.00,Weather View 32 v70,2013-03-06 02:09:00,
2013-03-05 18:15:00,45.9,21.6,29.44,West,265,3.0,5.0,38,0.00,,,0.00,Weather View 32 v70,2013-03-06 02:15:00,
2013-03-05 18:20:00,45.9,21.6,29.44,West,269,3.0,5.0,38,0.00,,,0.00,Weather View 32 v70,2013-03-06 02:20:00,
2013-03-05 18:25:00,45.7,22.1,29.44,West,273,4.0,5.0,39,0.00,,,0.00,Weather View 32 v70,2013-03-06 02:25:00,
2013-03-05 18:30:00,45.5,21.9,29.44,WNW,302,4.0,6.0,39,0.00,,,0.00,Weather View 32 v70,2013-03-06 02:30:00,
2013-03-05 18:40:00,45.3,22.4,29.44,West,268,3.0,6.0,40,0.00,,,0.00,Weather View 32 v70,2013-03-06 02:40:00,
2013-03-05 18:45:00,45.1,22.2,29.44,West,271,2.0,6.0,40,0.00,,,0.00,Weather View 32 v70,2013-03-06 02:45:00,
2013-03-05 18:50:00,45.1,22.2,29.44,West,271,4.0,6.0,40,0.00,,,0.00,Weather View 32 v70,2013-03-06 02:50:00,
2013-03-05 18:55:00,45.0,22.1,29.44,West,270,4.0,6.0,40,0.00,,,0.00,Weather View 32 v70,2013-03-06 02:55:00,
2013-03-05 19:00:00,44.8,21.9,29.44,West,270,0.0,6.0,40,0.00,,,0.00,Weather View 32 v70,2013-03-06 03:00:00,
2013-03-05 19:05:00,44.8,22.5,29.44,West,271,3.0,6.0,41,0.00,,,0.00,Weather View 32 v70,2013-03-06 03:05:00,
2013-03-05 19:15:00,44.8,22.5,29.44,West,271,0.0,6.0,41,0.00,,,0.00,Weather View 32 v70,2013-03-06 03:15:00,
2013-03-05 19:20:00,44.6,22.3,29.44,West,271,0.0,6.0,41,0.00,,,0.00,Weather View 32 v70,2013-03-06 03:20:00,
2013-03-05 19:30:00,44.6,22.9,29.44,West,271,0.0,5.0,42,0.00,,,0.00,Weather View 32 v70,2013-03-06 03:30:00,
2013-03-05 19:35:00,44.6,22.9,29.44,West,271,0.0,5.0,42,0.00,,,0.00,Weather View 32 v70,2013-03-06 03:35:00,
2013-03-05 19:45:00,44.6,22.9,29.44,North,353,2.0,5.0,42,0.00,,,0.00,Weather View 32 v70,2013-03-06 03:45:00,
2013-03-05 19:50:00,44.6,22.9,29.44,North,357,3.0,4.0,42,0.00,,,0.00,Weather View 32 v70,2013-03-06 03:50:00,
2013-03-05 19:55:00,44.4,22.7,29.41,North,10,0.0,6.0,42,0.00,,,0.00,Weather View 32 v70,2013-03-06 03:55:00,
2013-03-05 20:00:00,44.4,22.7,29.41,North,7,0.0,6.0,42,0.00,,,0.00,Weather View 32 v70,2013-03-06 04:00:00,
2013-03-05 20:05:00,44.2,22.6,29.41,North,7,0.0,6.0,42,0.00,,,0.00,Weather View 32 v70,2013-03-06 04:05:00,
2013-03-05 20:10:00,44.2,22.6,29.41,North,7,2.0,6.0,42,0.00,,,0.00,Weather View 32 v70,2013-03-06 04:10:00,
2013-03-05 20:20:00,44.1,22.4,29.41,NNE,14,5.0,7.0,42,0.00,,,0.00,Weather View 32 v70,2013-03-06 04:20:00,
2013-03-05 20:25:00,44.1,22.4,29.41,North,6,3.0,7.0,42,0.00,,,0.00,Weather View 32 v70,2013-03-06 04:25:00,
2013-03-05 20:35:00,44.1,22.4,29.41,North,6,0.0,7.0,42,0.00,,,0.00,Weather View 32 v70,2013-03-06 04:35:00,
2013-03-05 20:40:00,43.9,22.2,29.41,North,6,3.0,7.0,42,0.00,,,0.00,Weather View 32 v70,2013-03-06 04:40:00,
2013-03-05 20:45:00,43.9,22.2,29.41,North,6,3.0,7.0,42,0.00,,,0.00,Weather View 32 v70,2013-03-06 04:45:00,
2013-03-05 20:55:00,43.7,22.6,29.41,North,6,0.0,7.0,43,0.00,,,0.00,Weather View 32 v70,2013-03-06 04:55:00,
2013-03-05 21:00:00,43.7,22.6,29.41,North,6,0.0,7.0,43,0.00,,,0.00,Weather View 32 v70,2013-03-06 05:00:00,
2013-03-05 21:05:00,43.7,22.6,29.41,North,6,0.0,7.0,43,0.00,,,0.00,Weather View 32 v70,2013-03-06 05:05:00,
2013-03-05 21:10:00,43.7,22.6,29.41,North,6,0.0,7.0,43,0.00,,,0.00,Weather View 32 v70,2013-03-06 05:10:00,
2013-03-05 21:15:00,43.7,23.2,29.41,North,6,0.0,5.0,44,0.00,,,0.00,Weather View 32 v70,2013-03-06 05:15:00,
2013-03-05 21:20:00,43.7,23.2,29.41,North,6,0.0,5.0,44,0.00,,,0.00,Weather View 32 v70,2013-03-06 05:20:00,
2013-03-05 21:25:00,43.5,23.0,29.41,North,6,0.0,4.0,44,0.00,,,0.00,Weather View 32 v70,2013-03-06 05:25:00,
2013-03-05 21:35:00,43.5,23.6,29.41,North,6,0.0,4.0,45,0.00,,,0.00,Weather View 32 v70,2013-03-06 05:35:00,
2013-03-05 21:40:00,43.5,24.1,29.41,North,6,0.0,4.0,46,0.00,,,0.00,Weather View 32 v70,2013-03-06 05:40:00,
2013-03-05 21:45:00,43.3,23.9,29.41,North,6,0.0,4.0,46,0.00,,,0.00,Weather View 32 v70,2013-03-06 05:45:00,
2013-03-05 21:55:00,43.3,24.9,29.41,North,353,3.0,5.0,48,0.00,,,0.00,Weather View 32 v70,2013-03-06 05:55:00,
2013-03-05 22:00:00,43.3,24.9,29.41,North,353,0.0,5.0,48,0.00,,,0.00,Weather View 32 v70,2013-03-06 06:00:00,
2013-03-05 22:10:00,43.3,25.4,29.41,North,353,3.0,5.0,49,0.00,,,0.00,Weather View 32 v70,2013-03-06 06:10:00,
2013-03-05 22:15:00,43.2,25.3,29.41,North,353,3.0,5.0,49,0.00,,,0.00,Weather View 32 v70,2013-03-06 06:15:00,
2013-03-05 22:20:00,43.2,25.3,29.41,North,353,0.0,5.0,49,0.00,,,0.00,Weather View 32 v70,2013-03-06 06:20:00,
2013-03-05 22:25:00,43.2,25.8,29.41,North,353,3.0,5.0,50,0.00,,,0.00,Weather View 32 v70,2013-03-06 06:25:00,
2013-03-05 22:35:00,43.2,25.8,29.41,North,353,0.0,5.0,50,0.00,,,0.00,Weather View 32 v70,2013-03-06 06:35:00,
2013-03-05 22:40:00,43.2,25.8,29.41,North,353,2.0,5.0,50,0.00,,,0.00,Weather View 32 v70,2013-03-06 06:40:00,
2013-03-05 22:45:00,43.2,25.8,29.41,North,353,3.0,5.0,50,0.00,,,0.00,Weather View 32 v70,2013-03-06 06:45:00,
2013-03-05 22:50:00,43.0,25.6,29.41,North,0,0.0,5.0,50,0.00,,,0.00,Weather View 32 v70,2013-03-06 06:50:00,
2013-03-05 22:55:00,43.2,25.8,29.41,North,0,0.0,5.0,50,0.00,,,0.00,Weather View 32 v70,2013-03-06 06:55:00,
2013-03-05 23:00:00,43.2,25.8,29.41,NNW,339,0.0,5.0,50,0.00,,,0.00,Weather View 32 v70,2013-03-06 07:00:00,
2013-03-05 23:10:00,43.2,25.8,29.38,NNE,22,0.0,5.0,50,0.00,,,0.00,Weather View 32 v70,2013-03-06 07:10:00,
2013-03-05 23:15:00,43.0,25.6,29.38,NNE,22,0.0,5.0,50,0.00,,,0.00,Weather View 32 v70,2013-03-06 07:15:00,
2013-03-05 23:20:00,43.0,25.6,29.38,NNE,22,0.0,5.0,50,0.00,,,0.00,Weather View 32 v70,2013-03-06 07:20:00,
2013-03-05 23:25:00,43.0,25.6,29.38,NNE,22,0.0,5.0,50,0.00,,,0.00,Weather View 32 v70,2013-03-06 07:25:00,
2013-03-05 23:30:00,43.0,25.6,29.38,NNE,22,0.0,4.0,50,0.00,,,0.00,Weather View 32 v70,2013-03-06 07:30:00,
2013-03-05 23:40:00,43.0,25.6,29.38,NNE,22,0.0,4.0,50,0.00,,,0.00,Weather View 32 v70,2013-03-06 07:40:00,
2013-03-05 23:45:00,42.8,25.4,29.38,NNE,22,0.0,4.0,50,0.00,,,0.00,Weather View 32 v70,2013-03-06 07:45:00,
2013-03-05 23:50:00,42.8,25.4,29.38,NNE,22,0.0,3.0,50,0.00,,,0.00,Weather View 32 v70,2013-03-06 07:50:00,
2013-03-05 23:55:00,42.8,25.4,29.38,NNE,22,0.0,3.0,50,0.00,,,0.00,Weather View 32 v70,2013-03-06 07:55:00,